Regional Weather Roundup
Issued by NWS Cleveland, OH

Home | Current Version | Previous Version | Graphics & Text | Print | Product List | Glossary On
Versions: 1 2 3 4 5 6 7 8 9 10 11 12 13 14 15 16 17 18 19 20 21 22 23 24 25 26 27 28 29 30 31 32 33 34 35 36 37 38 39 40 41 42 43 44 45 46 47 48 49 50
000
ASUS41 KCLE 210800
RWRCLE
OHIO REGIONAL WEATHER ROUNDUP
NATIONAL WEATHER SERVICE WILMINGTON, OH
400 AM EDT MON MAY 21 2018

NOTE: "FAIR" INDICATES FEW OR NO CLOUDS BELOW 12,000 FEET WITH NO
SIGNIFICANT WEATHER AND/OR OBSTRUCTIONS TO VISIBILITY.

OHZ001>008-015>018-024>027-034-035-043-044-210900-
   NORTHWEST OHIO

CITY           SKY/WX    TMP DP  RH WIND       PRES   REMARKS
DEFIANCE       CLOUDY    58  55  90 E6        30.19R
FINDLAY        FAIR      57  52  83 E10       30.17S
TOLEDO EXPRESS FAIR      55  55 100 NE6       30.19R
TOLEDO EXEC    FAIR      55  51  86 NE7       30.20R
LIMA           FAIR      55  53  93 NE9       30.16F
$$

OHZ009>014-019>023-028>033-038-089-210900-
   NORTHEAST OHIO

CITY           SKY/WX    TMP DP  RH WIND       PRES   REMARKS
CLE-HOPKINS    MOCLDY    54  47  77 CALM      30.21S
CLE-LAKEFRONT  CLOUDY    54  47  77 N9        30.19S
CUY CO. ARPT   NOT AVBL
LORAIN-ELYRIA  CLOUDY    53  44  71 NE10      30.20R
ASHTABULA      FAIR      48  48 100 CALM      30.20R
AKRON-CANTON   MOCLDY    56  51  84 NE7       30.19R
WOOSTER        FAIR      53  52  96 CALM      30.20R
MANSFIELD      FAIR      53  52  96 N7        30.18S
YOUNGSTOWN     FAIR      53  51  93 N5        30.17F
$$

OHZ042-051>053-060>062-070>072-077>081-210900-
  SOUTHWEST OHIO

CITY           SKY/WX    TMP DP  RH WIND       PRES   REMARKS
CINC-COVINGTON MOCLDY    67  63  87 NE5       30.09R
CINC-LUNKEN    FAIR      64  64 100 NE3       30.10R
HAMILTON       FAIR      67  64  90 CALM      30.11R
DAYTON         NOT AVBL
WRIGHT-PAT AFB CLOUDY    64  59  83 NE8       30.12S
DAYTON GENERAL FAIR      65  60  84 NE8       30.11R
WILMINGTON     FAIR      63  62  97 E8        30.11S
$$

OHZ036-037-039>041-045>050-054>059-063>069-073>076-082>088-210900-
  CENTRAL AND SOUTHEAST OHIO

CITY           SKY/WX    TMP DP  RH WIND       PRES   REMARKS
COLUMBUS       CLOUDY    62  56  80 NE6       30.13F
OSU AIRPORT    FAIR      61  57  87 NE7       30.14F
BOLTON FIELD   NOT AVBL
RICKENBACK AFB NOT AVBL
NEWARK         FAIR      61  56  83 VRB5      30.14S
MARION         FAIR      54  52  93 NE6       30.17F FOG
LANCASTER      FAIR      62  58  86 NE5       30.14S
ZANESVILLE     MOCLDY    62  57  83 NE5       30.15S
NEW PHILLY     FAIR      57  55  93 CALM      30.18R
$$



USA.gov is the U.S. government's official web portal to all federal, state and local government web resources and services.